RH
86 95 100 86 81 94 100 100 97 100 100 96 96 94 92 87 72 47 42 60 67 70 85 82 57 43 45 56 62 46 43 37 43 43 37 44 44 61 61 47 74 60 46 39
99 100 100 100 100 86 84 94 100 100 100 95 87 92 80 76 69 45 44 48 55 82 67 69 55 50 50 62 68 64 72 60 60 66 59 56 48 47 67 48 43 42 42 38
86 90 94 97 99 100 95 89 92 87 96 91 82 82 92 83 56 34 29 35 39 47 75 77 61 56 73 100 100 100 85 90 94 80 90 90 86 79 89 84 63 53 43 39
90 100 92 100 100 97 85 98 92 98 86 73 74 68 68 56 42 52 68 57 59 71 69 86 68 91 100 99 90 100 100 100 94 99 100 100 84 93 89 58 48 47 51 44
100 100 100 94 92 98 84 83 79 73 74 65 65 57 56 83 98 75 60 56 68 85 97 90 90 97 100 100 100 100 100 100 100 100 100 86 63 50 58 58 45 44 38 37
86 90 94 100 100 83 58 80 66 66 63 52 70 68 70 83 82 86 94 98 95 100 100 100 100 100 94 95 99 86 84 86 96 90 60 60 90 81 60 48 41 34 34 38
90 80 89 83 84 80 53 62 83 77 81 75 79 66 68 64 58 68 86 100 100 100 100 94 92 87 79 97 90 83 85 67 64 72 100 88 64 57 50 42 37 37 43 49
72 54 84 100 98 68 66 60 68 62 79 76 67 67 74 70 83 98 97 98 100 100 99 94 87 83 85 90 82 80 80 76 100 100 76 54 54 43 40 40 48 49 51 57
100 84 52 68 97 100 86 56 95 91 62 57 77 86 95 100 100 100 100 97 94 96 91 100 99 91 91 77 88 87 94 98 79 67 59 52 45 46 47 55 52 51 57 64
100 100 99 100 100 100 100 99 95 92 86 77 74 99 100 100 100 98 100 92 91 81 91 96 92 98 89 84 94 80 70 76 68 64 52 45 45 51 51 52 50 56 56 61
100 75 100 100 100 100 96 76 76 100 98 100 100 100 94 100 100 100 100 98 86 83 94 86 87 83 80 84 74 61 64 66 57 52 50 53 57 50 43 38 37 46 54 60
100 100 100 100 100 100 92 83 77 57 100 100 100 100 99 99 100 100 80 74 82 89 85 90 83 70 81 69 64 69 69 70 65 67 63 53 46 39 34 29 28 36 44 53
96 76 100 92 93 98 100 100 100 100 98 98 100 100 100 98 92 85 76 74 77 84 91 72 74 76 65 70 71 72 69 66 74 65 50 42 33 26 16 14 14 18 29 43
100 100 100 100 100 100 100 100 100 100 100 100 100 81 75 79 81 74 70 78 81 73 53 67 78 68 67 64 64 68 63 67 64 53 44 35 21 16 15 15 16 19 24 35
100 100 100 100 100 100 100 100 94 97 100 100 71 70 85 88 74 72 70 64 58 46 62 66 61 61 57 64 69 68 67 69 57 50 40 24 20 19 19 20 24 34 45 51
100 100 100 100 100 89 99 100 84 79 79 90 86 81 87 84 85 70 59 50 46 54 62 75 70 70 76 83 78 70 72 65 54 47 30 26 25 24 29 36 45 59 70 79
100 100 97 98 95 79 70 88 94 87 72 80 90 88 96 86 64 56 54 55 70 78 83 81 81 90 85 80 79 68 62 62 52 36 31 30 30 32 43 59 66 75 85 90
82 66 84 81 88 82 96 88 81 75 82 86 74 90 90 69 51 52 58 71 78 83 78 87 83 77 81 76 72 61 60 57 44 32 35 34 44 54 71 75 79 86 89 89
48 70 85 89 76 78 53 69 95 81 72 72 68 61 47 45 49 53 52 58 72 83 85 82 81 76 69 69 68 59 58 50 32 36 38 42 46 65 76 81 73 80 82 77
53 46 34 31 32 28 69 82 84 80 44 51 46 45 55 64 60 52 62 71 79 84 81 81 74 71 71 74 65 62 56 39 37 39 41 54 62 66 75 84 89 83 79 83
23 22 22 25 31 57 76 65 47 33 37 42 51 56 60 54 54 64 76 76 86 86 84 79 76 76 75 75 64 65 47 52 45 42 52 65 76 79 85 88 85 87 86 86
23 28 31 27 23 28 34 31 30 39 47 52 57 54 61 63 61 69 84 93 91 93 86 77 75 76 74 66 66 52 56 58 55 65 75 78 88 97 94 90 91 85 84 83
20 20 20 21 25 27 32 49 41 50 56 52 62 66 57 63 72 83 86 90 86 80 70 63 60 66 71 66 59 69 63 68 83 82 73 81 95 94 95 92 84 82 77 75
19 19 20 21 32 36 40 47 55 63 57 48 52 64 64 70 74 78 78 79 77 78 70 54 58 62 65 63 72 92 90 92 87 78 77 91 92 95 95 90 86 82 77 72
21 23 27 28 33 40 42 40 37 47 39 54 70 69 78 83 82 81 87 88 91 84 68 59 68 59 60 68 91 97 96 95 92 83 93 95 99 99 99 95 91 82 77 76
21 22 26 30 35 37 35 30 32 37 54 67 75 89 95 82 86 85 88 82 82 85 64 64 56 60 63 87 99 98 93 88 90 95 96 93 96 98 97 97 90 84 82 77
Wind_Speed
43 44 50 48 49 49 52 54 56 59 60 56 57 57 59 59 56 57 58 65 68 69 72 74 76 77 75 76 77 78 82 85 88 90 89 92 96 95 95 96 98 102 103 102
48 47 55 52 54 53 53 55 58 64 68 65 62 61 64 65 63 61 65 70 74 78 82 84 88 86 81 78 82 86 88 90 91 95 95 95 97 99 98 100 103 104 106 106
49 52 57 56 56 57 57 57 60 60 65 67 66 61 66 67 68 69 71 74 79 84 87 92 95 93 87 83 86 92 95 95 96 99 97 100 99 101 102 105 107 106 106 107
55 64 65 65 64 65 58 68 65 66 66 66 70 64 71 74 75 77 80 81 85 91 93 99 98 91 90 92 95 96 98 101 103 99 97 98 101 102 104 106 103 101 112 101
63 68 71 68 69 74 69 70 70 71 70 66 67 72 71 79 82 87 88 91 95 98 97 99 98 94 97 98 102 103 103 105 101 99 100 103 103 101 98 105 106 101 94 84
64 71 71 74 77 79 73 74 76 74 73 74 79 85 72 82 86 90 96 97 98 102 97 102 103 103 106 106 106 103 101 100 98 101 100 96 102 107 104 97 91 86 78 72
75 74 76 77 80 81 80 81 83 83 85 82 83 89 88 94 95 100 102 101 102 106 108 112 113 113 109 105 103 100 98 98 96 91 98 107 108 98 94 88 82 79 68 61
83 81 84 85 82 84 85 86 87 86 87 90 94 96 96 100 103 106 108 111 111 112 112 113 111 112 106 104 100 97 95 93 91 100 101 96 94 89 81 79 71 64 57 52
89 87 87 86 91 96 96 94 94 98 96 99 101 103 105 107 110 114 115 116 117 114 113 106 108 106 102 100 96 94 93 95 98 94 91 89 84 78 74 64 61 58 53 49
98 95 92 94 93 98 100 100 104 104 106 107 108 105 111 113 118 121 122 122 116 113 107 106 100 97 97 94 94 93 92 90 89 87 84 79 72 68 65 60 57 52 49 47
105 103 97 101 101 102 105 109 113 112 113 109 112 115 116 121 122 125 125 121 117 109 102 96 94 94 91 91 90 85 83 83 81 78 74 70 69 70 67 64 61 56 51 46
113 109 104 110 111 111 116 117 120 119 115 116 121 115 126 125 124 120 119 114 107 104 98 90 89 88 84 81 79 78 77 77 73 70 70 70 69 67 67 66 62 58 55 50
121 122 121 116 120 118 118 118 116 123 128 127 127 120 121 123 125 118 110 100 93 89 86 85 81 78 75 74 74 73 71 69 65 67 68 66 64 62 58 53 49 48 50 49
129 130 124 122 117 123 125 121 126 134 132 126 123 122 119 119 112 103 91 85 81 79 78 72 71 72 71 71 69 67 64 61 63 64 65 61 54 48 45 42 39 38 40 40
135 133 131 127 123 128 128 124 130 136 127 122 126 114 107 103 94 87 82 76 74 74 67 68 69 69 68 65 64 62 59 58 62 61 58 50 43 39 35 32 28 25 24 26
133 132 132 131 130 130 128 121 124 117 123 121 113 103 95 87 83 78 75 73 70 67 66 67 68 66 63 62 62 59 55 58 59 56 46 40 36 32 27 22 21 19 20 23
127 126 128 129 123 126 117 118 115 109 106 99 91 86 83 79 76 73 72 69 66 65 65 67 65 63 62 61 60 58 54 56 53 44 38 33 30 27 23 20 19 21 25 28
115 108 109 114 115 114 106 107 100 101 93 87 80 74 73 73 72 70 67 65 64 65 65 63 63 61 59 59 58 54 50 51 44 36 34 30 27 24 24 24 25 25 27 30
100 101 99 102 96 96 94 91 88 87 79 76 72 70 69 67 65 65 62 62 62 62 61 61 61 60 56 55 53 50 46 43 35 32 31 27 26 25 26 27 27 27 29 32
86 90 90 87 83 82 78 81 79 79 64 68 67 63 62 62 63 61 59 59 59 60 59 58 58 56 54 54 52 44 40 34 31 30 29 27 26 26 24 24 26 28 31 35
76 79 79 76 71 66 70 68 70 67 62 61 60 60 61 61 59 57 57 57 57 57 57 56 55 53 51 50 43 39 33 30 30 30 28 25 24 22 23 27 31 35 38 41
68 70 69 66 61 57 62 66 63 59 58 57 58 59 59 58 56 54 53 54 53 55 56 55 53 49 45 43 36 32 29 27 30 27 22 20 22 25 30 33 37 41 46 50
64 62 62 58 53 56 56 57 56 56 56 55 56 59 57 55 53 52 52 51 52 54 53 49 46 41 39 36 30 28 25 24 24 21 20 23 27 31 34 38 43 48 52 55
57 57 52 49 50 54 54 56 55 55 55 55 55 55 54 52 50 49 49 49 50 50 48 45 39 37 35 29 25 25 21 20 21 23 26 28 31 35 39 44 49 54 57 60
51 49 49 48 52 54 54 54 51 52 52 53 53 50 50 52 49 48 47 48 47 48 47 40 38 32 28 25 22 20 18 21 26 27 29 32 36 40 45 51 55 59 61 62
49 50 50 50 51 51 50 46 45 46 49 51 47 48 52 50 49 47 46 44 44 46 42 37 32 28 25 24 22 22 22 25 27 30 33 37 41 46 51 56 60 63 65 65
Wind_Direction
277 278 277 272 273 275 279 278 274 277 280 281 283 285 288 291 293 294 299 302 302 301 302 297 299 303 298 296 292 295 293 292 289 288 291 288 286 285 285 285 287 288 289 290
273 275 276 276 275 276 278 277 281 281 283 284 283 285 286 286 286 288 293 297 299 300 299 300 301 303 300 289 289 292 292 292 292 291 291 291 290 287 289 287 289 289 289 290
276 280 280 278 279 279 280 277 276 279 283 286 285 287 288 288 289 290 293 294 298 299 300 298 300 301 298 291 288 289 291 290 289 291 289 290 291 288 287 288 290 290 291 291
280 280 283 283 283 283 285 283 282 281 280 282 286 287 290 291 294 296 295 294 295 296 296 298 299 296 291 290 290 289 291 290 292 291 289 290 290 288 287 287 288 289 294 291
277 277 279 283 284 285 285 281 283 284 281 283 289 290 293 294 292 295 297 296 296 296 293 296 298 294 293 292 292 292 291 291 291 289 288 289 289 288 290 292 293 294 292 291
274 275 275 276 279 284 285 282 282 283 284 289 284 289 294 292 290 291 295 295 295 297 295 295 295 293 296 293 291 292 293 292 290 289 289 292 294 294 296 295 295 294 290 289
271 275 276 275 274 279 281 281 281 284 286 284 285 287 293 293 291 293 297 295 293 291 290 293 294 297 296 292 290 292 291 292 292 293 293 294 296 296 296 295 295 293 289 287
273 276 274 274 278 278 282 282 283 282 281 284 288 291 291 291 291 290 292 293 293 292 292 294 294 294 294 294 294 295 296 296 294 293 294 294 295 295 294 294 293 289 287 286
273 278 277 274 274 275 282 283 279 282 286 287 286 289 290 291 290 291 294 295 295 296 293 293 292 292 292 294 294 295 295 291 293 293 295 295 294 295 294 292 289 286 284 281
270 275 272 276 272 275 279 279 283 282 284 286 289 290 292 291 292 294 296 295 295 296 294 293 293 291 292 292 292 293 293 293 294 295 294 294 294 292 291 286 285 283 281 277
273 273 272 273 274 274 276 280 283 283 287 284 285 289 289 291 291 291 291 291 293 292 293 293 289 292 292 292 292 292 292 294 294 296 295 295 295 294 291 286 283 277 274 273
271 270 272 274 275 277 278 279 281 285 284 282 286 288 289 290 291 292 292 292 291 291 290 289 290 292 291 292 291 292 294 295 295 295 293 293 294 292 289 286 283 275 270 268
270 272 273 274 275 276 276 275 277 277 284 286 289 291 287 288 289 290 291 291 290 288 287 288 290 289 289 290 290 291 292 293 292 291 293 296 297 295 291 286 283 275 267 264
272 273 271 274 271 270 276 275 274 279 282 284 288 291 289 289 288 289 289 288 287 285 287 290 286 287 288 288 289 290 291 290 290 295 299 300 298 294 290 286 284 276 267 263
273 274 273 273 273 272 273 275 275 278 280 284 289 288 289 289 287 287 287 285 283 285 287 284 285 286 288 288 289 291 292 292 295 298 301 298 297 297 293 287 280 273 268 266
268 272 274 275 275 274 275 275 273 278 281 285 286 287 285 286 287 285 284 283 286 286 285 284 286 287 288 290 291 291 290 293 295 299 296 296 297 295 293 288 284 280 280 276
268 272 274 272 274 277 277 282 282 282 282 284 284 283 283 283 283 283 283 285 284 282 280 282 286 286 287 289 289 290 290 292 295 292 291 292 292 291 287 286 283 280 278 275
268 270 270 271 273 277 279 280 279 280 280 281 282 281 280 279 280 280 281 278 277 277 280 284 285 286 289 289 290 290 292 291 290 289 288 288 289 286 282 279 278 276 276 278
268 268 268 270 274 274 276 276 276 277 280 280 279 278 277 276 277 276 276 276 277 280 281 283 286 287 288 290 291 292 290 287 284 285 283 283 281 278 276 275 281 285 285 285
264 266 268 269 269 272 272 275 275 275 279 276 274 274 274 273 274 277 277 277 277 278 281 284 287 290 293 293 292 290 288 283 283 279 274 277 277 278 281 284 288 289 291 295
261 264 266 267 269 268 268 270 270 274 270 267 268 269 269 272 274 274 275 276 277 281 283 286 287 290 291 288 288 288 283 280 274 272 273 274 278 284 288 291 294 297 299 299
259 261 265 267 268 266 262 264 267 266 265 265 265 268 269 271 273 273 273 276 279 281 282 284 287 288 286 283 283 279 277 273 269 269 272 278 286 291 294 297 299 301 302 302
260 261 262 265 263 261 262 262 261 261 261 263 264 266 269 269 271 271 272 274 276 279 282 285 286 286 283 282 275 274 270 266 264 267 280 290 293 295 298 300 302 302 303 304
259 261 262 258 256 257 256 255 256 257 261 263 264 266 269 270 271 271 273 275 280 284 285 285 288 283 279 271 266 267 266 267 274 285 293 295 296 300 302 304 304 304 306 307
255 257 256 255 253 252 250 252 254 257 261 262 262 265 266 266 269 273 276 281 284 284 285 290 287 282 271 259 255 251 257 271 280 290 297 301 303 304 305 306 306 307 308 309
255 250 248 248 250 252 255 258 257 257 257 259 262 264 265 268 270 273 276 279 280 282 286 287 280 273 258 246 245 249 259 271 283 293 298 303 304 306 307 308 308 309 311 311